Weather History for Mosby, MO

Change the Weather History Date:

Monday, May 26, 2014

  Actual Average (KMKC) Record (KMKC)
Temperature  
Mean Temperature 72 °F -  
Max Temperature 80 °F 76 °F 90 °F (2012)
Min Temperature 64 °F 57 °F 50 °F (2002)
Cooling Degree Days 7    
Growing Degree Days 22 (Base 50)    
Moisture  
Dew Point 65 °F    
Average Humidity 78    
Maximum Humidity 100    
Minimum Humidity 58    
Precipitation  
Precipitation 0.00 in - - ()
Sea Level Pressure  
Sea Level Pressure 29.99 in    
Wind  
Wind Speed 3 mph (South)    
Max Wind Speed 8 mph    
Max Gust Speed -    
Visibility 10 miles    
Events Thunderstorm    
Averages and records for this station are not official NWS values.
T = Trace of Precipitation, MM = Missing Value Source: NWS Daily Summary

Daily Weather History Graph

Daily Weather History Graph

Search for Another Location

Airport:

Trip Planner

Search our weather history database for the weather conditions in past years. The results will help you decide how hot, cold, wet, or windy it might be!

Date:

Astronomy

May. 26, 2014 Rise Set
Actual Time 5:55 AM CDT 8:33 PM CDT
Civil Twilight 5:24 AM CDT 9:04 PM CDT
Nautical Twilight 4:45 AM CDT 9:43 PM CDT
Astronomical Twilight 4:01 AM CDT 10:27 PM CDT
Moon 4:37 AM CDT (5/26) 6:37 PM CDT (5/26)
Length of Visible Light 15h 40m
Length of Day
14h 38m
Waning Crescent, 5% of the Moon is Illuminated
May 26
Waning Crescent
May 28
New
Jun 5
First Quarter
Jun 12
Full
Jun 19
Last Quarter

Hourly Weather History & Observations

Time (CDT) Temp. Heat Index Dew Point Humidity Pressure Visibility Wind Dir Wind Speed Gust Speed Precip Events Conditions
12:15 AM 71.6 °F - 59.0 °F 64% 30.01 in 10.0 mi WSW 3.5 mph - N/A   Scattered Clouds
12:35 AM 71.6 °F - 60.8 °F 69% 30.00 in 10.0 mi Calm Calm - N/A   Clear
12:55 AM 69.8 °F - 60.8 °F 73% 30.00 in 10.0 mi Calm Calm - N/A   Clear
1:15 AM 69.8 °F - 60.8 °F 73% 30.00 in 10.0 mi Calm Calm - N/A   Scattered Clouds
1:35 AM 69.8 °F - 60.8 °F 73% 30.00 in 10.0 mi Calm Calm - N/A   Scattered Clouds
1:55 AM 68.0 °F - 60.8 °F 78% 29.99 in 10.0 mi Calm Calm - N/A Thunderstorm Clear
2:15 AM 68.0 °F - 60.8 °F 78% 30.00 in 10.0 mi Calm Calm - N/A   Scattered Clouds
2:35 AM 68.0 °F - 62.6 °F 83% 30.02 in 10.0 mi South 8.1 mph - N/A   Mostly Cloudy
3:15 AM 68.0 °F - 62.6 °F 83% 30.01 in 10.0 mi Calm Calm - N/A   Mostly Cloudy
3:35 AM 66.2 °F - 62.6 °F 88% 30.01 in 10.0 mi Calm Calm - N/A   Overcast
3:55 AM 64.4 °F - 62.6 °F 94% 30.00 in 10.0 mi Calm Calm - N/A   Mostly Cloudy
4:15 AM 64.4 °F - 62.6 °F 94% 29.99 in 10.0 mi Calm Calm - N/A   Mostly Cloudy
4:35 AM 64.4 °F - 62.6 °F 94% 29.99 in 10.0 mi East 3.5 mph - N/A   Overcast
4:55 AM 64.4 °F - 62.6 °F 94% 29.98 in 10.0 mi Calm Calm - N/A   Mostly Cloudy
5:15 AM 64.4 °F - 62.6 °F 94% 29.97 in 10.0 mi ESE 3.5 mph - N/A   Overcast
5:35 AM 64.4 °F - 62.6 °F 94% 29.98 in 10.0 mi SSE 3.5 mph - N/A   Unknown
5:55 AM 64.4 °F - 64.4 °F 100% 29.98 in 10.0 mi Calm Calm - N/A   Mostly Cloudy
6:15 AM 64.4 °F - 64.4 °F 100% 29.99 in 10.0 mi SSE 4.6 mph - N/A   Mostly Cloudy
6:35 AM 64.4 °F - 64.4 °F 100% 29.99 in 10.0 mi SE 3.5 mph - N/A   Scattered Clouds
6:55 AM 64.4 °F - 64.4 °F 100% 30.00 in 10.0 mi SE 4.6 mph - N/A   Clear
7:15 AM 66.2 °F - 64.4 °F 94% 30.00 in 10.0 mi SSE 4.6 mph - N/A   Mostly Cloudy
7:35 AM 68.0 °F - 64.4 °F 88% 30.01 in 10.0 mi SSE 3.5 mph - N/A   Overcast
7:55 AM 68.0 °F - 64.4 °F 88% 30.01 in 10.0 mi SSE 3.5 mph - N/A   Overcast
8:15 AM 68.0 °F - 64.4 °F 88% 30.02 in 10.0 mi Calm Calm - N/A   Overcast
8:35 AM 69.8 °F - 66.2 °F 88% 30.02 in 10.0 mi South 4.6 mph - N/A   Overcast
9:15 AM 71.6 °F - 64.4 °F 78% 30.03 in 10.0 mi SSE 6.9 mph - N/A   Overcast
9:35 AM 71.6 °F - 64.4 °F 78% 30.03 in 10.0 mi South 5.8 mph - N/A   Overcast
9:55 AM 71.6 °F - 64.4 °F 78% 30.03 in 10.0 mi SSW 8.1 mph - N/A   Overcast
10:15 AM 71.6 °F - 64.4 °F 78% 30.02 in 10.0 mi South 5.8 mph - N/A   Overcast
10:35 AM 71.6 °F - 64.4 °F 78% 30.02 in 10.0 mi SSW 8.1 mph - N/A   Mostly Cloudy
10:55 AM 71.6 °F - 64.4 °F 78% 30.03 in 10.0 mi South 8.1 mph - N/A   Mostly Cloudy
11:15 AM 73.4 °F - 64.4 °F 73% 30.04 in 10.0 mi South 8.1 mph - N/A   Overcast
11:55 AM 73.4 °F - 66.2 °F 78% 30.02 in 10.0 mi SW 6.9 mph - N/A   Mostly Cloudy
12:15 PM 73.4 °F - 66.2 °F 78% 30.03 in 10.0 mi SSW 5.8 mph - N/A   Mostly Cloudy
12:35 PM 75.2 °F - 66.2 °F 73% 30.03 in 10.0 mi SSW 5.8 mph - N/A   Mostly Cloudy
12:55 PM 77.0 °F - 68.0 °F 74% 30.02 in 10.0 mi South 8.1 mph - N/A   Mostly Cloudy
1:15 PM 77.0 °F - 66.2 °F 69% 30.01 in 10.0 mi South 3.5 mph - N/A   Scattered Clouds
1:35 PM 77.0 °F - 68.0 °F 74% 30.01 in 10.0 mi SW 6.9 mph - N/A   Clear
1:55 PM 77.0 °F - 68.0 °F 74% 29.99 in 10.0 mi Calm Calm - N/A   Mostly Cloudy
2:15 PM 77.0 °F - 68.0 °F 74% 29.99 in 10.0 mi SSW 3.5 mph - N/A   Mostly Cloudy
2:35 PM 77.0 °F - 66.2 °F 69% 29.98 in 10.0 mi SSW 4.6 mph - N/A   Scattered Clouds
2:55 PM 78.8 °F - 66.2 °F 65% 29.98 in 10.0 mi SW 6.9 mph - N/A   Scattered Clouds
3:15 PM 78.8 °F - 66.2 °F 65% 29.97 in 10.0 mi SSW 4.6 mph - N/A   Scattered Clouds
3:35 PM 78.8 °F - 66.2 °F 65% 29.97 in 10.0 mi SW 5.8 mph - N/A   Scattered Clouds
3:55 PM 80.6 °F 82.7 °F 66.2 °F 61% 29.97 in 10.0 mi South 6.9 mph - N/A   Mostly Cloudy
4:15 PM 80.6 °F 82.7 °F 66.2 °F 61% 29.96 in 10.0 mi SSW 4.6 mph - N/A   Scattered Clouds
4:35 PM 80.6 °F 82.3 °F 64.4 °F 58% 29.95 in 10.0 mi Calm Calm - N/A   Unknown
4:55 PM 80.6 °F 82.3 °F 64.4 °F 58% 29.96 in 10.0 mi South 4.6 mph - N/A   Scattered Clouds
5:15 PM 80.6 °F 82.3 °F 64.4 °F 58% 29.95 in 10.0 mi South 6.9 mph - N/A   Scattered Clouds
5:35 PM 78.8 °F - 64.4 °F 61% 29.95 in 10.0 mi SSE 4.6 mph - N/A Thunderstorm Clear
6:15 PM 78.8 °F - 66.2 °F 65% 29.95 in 10.0 mi South 4.6 mph - N/A   Clear
6:35 PM 78.8 °F - 64.4 °F 61% 29.95 in 10.0 mi South 5.8 mph - N/A   Scattered Clouds
6:55 PM 77.0 °F - 64.4 °F 65% 29.96 in 10.0 mi SSE 8.1 mph - N/A   Scattered Clouds
7:15 PM 77.0 °F - 66.2 °F 69% 29.96 in 10.0 mi SSE 5.8 mph - N/A   Clear
7:35 PM 77.0 °F - 66.2 °F 69% 29.96 in 10.0 mi South 5.8 mph - N/A   Clear
7:55 PM 77.0 °F - 66.2 °F 69% 29.97 in 10.0 mi SSE 6.9 mph - N/A   Clear
8:35 PM 75.2 °F - 64.4 °F 69% 29.97 in 10.0 mi South 5.8 mph - N/A   Clear
8:55 PM 73.4 °F - 64.4 °F 73% 29.97 in 10.0 mi SSE 5.8 mph - N/A   Clear
9:15 PM 73.4 °F - 66.2 °F 78% 29.97 in 10.0 mi SSE 6.9 mph - N/A   Clear
9:35 PM 73.4 °F - 66.2 °F 78% 29.97 in 10.0 mi SSE 3.5 mph - N/A   Clear
9:55 PM 71.6 °F - 66.2 °F 83% 29.97 in 10.0 mi SSE 4.6 mph - N/A   Clear
10:15 PM 71.6 °F - 66.2 °F 83% 29.98 in 10.0 mi South 3.5 mph - N/A   Clear
10:35 PM 71.6 °F - 66.2 °F 83% 29.98 in 10.0 mi Calm Calm - N/A   Clear
10:55 PM 71.6 °F - 66.2 °F 83% 29.98 in 10.0 mi South 4.6 mph - N/A   Clear
11:15 PM 71.6 °F - 66.2 °F 83% 29.98 in 10.0 mi South 3.5 mph - N/A   Scattered Clouds
11:35 PM 71.6 °F - 66.2 °F 83% 29.98 in 10.0 mi SSE 3.5 mph - N/A   Scattered Clouds
11:55 PM 71.6 °F - 66.2 °F 83% 29.98 in 10.0 mi SSE 4.6 mph - N/A   Clear